| time (UTC) | temp C | wind direction | speed KPH | gust KPH | rain 1hr cm | rain 24hr cm | rain mn cm | humidity % | barometer mb |
| 20260901174547 | 37 | 207 | 0.0 | 3.2 | 0.00 | 0.00 | 0.00 | 40 | 1018.5 |
| 20260901173054 | 37 | 158 | 1.6 | 11.3 | 0.00 | 0.00 | 0.00 | 40 | 1018.7 |
| 20260901171551 | 37 | 148 | 0.0 | 6.4 | 0.00 | 0.00 | 0.00 | 43 | 1018.8 |
| 20260901170047 | 36 | 222 | 0.0 | 8.0 | 0.00 | 0.00 | 0.00 | 44 | 1018.9 |
| 20260901164557 | 36 | 0 | 0.0 | 9.7 | 0.00 | 0.00 | 0.00 | 45 | 1019.1 |
| 20260901163050 | 36 | 182 | 0.0 | 4.8 | 0.00 | 0.00 | 0.00 | 47 | 1019.4 |
| 20260901161550 | 35 | 160 | 0.0 | 4.8 | 0.00 | 0.00 | 0.00 | 49 | 1019.4 |
| 20260901160058 | 34 | 199 | 1.6 | 8.0 | 0.00 | 0.00 | 0.00 | 51 | 1019.5 |
| 20260901154547 | 33 | 0 | 0.0 | 6.4 | 0.00 | 0.00 | 0.00 | 52 | 1019.5 |
| 20260901153049 | 33 | 73 | 0.0 | 8.0 | 0.00 | 0.00 | 0.00 | 53 | 1019.6 |
| 20260901151554 | 32 | 195 | 3.2 | 11.3 | 0.00 | 0.00 | 0.00 | 54 | 1019.8 |
| 20260901150049 | 32 | 134 | 0.0 | 8.0 | 0.00 | 0.00 | 0.00 | 55 | 1019.8 |
| 20260901144546 | 32 | 214 | 0.0 | 9.7 | 0.00 | 0.00 | 0.00 | 56 | 1019.7 |
| 20260901143055 | 31 | 122 | 1.6 | 11.3 | 0.00 | 0.00 | 0.00 | 58 | 1019.8 |
| 20260901141553 | 30 | 161 | 0.0 | 4.8 | 0.00 | 0.00 | 0.00 | 60 | 1019.9 |
| 20260901140048 | 28 | 214 | 1.6 | 9.7 | 0.00 | 0.00 | 0.00 | 63 | 1019.8 |
| 20260901134545 | 27 | 191 | 0.0 | 4.8 | 0.00 | 0.00 | 0.00 | 66 | 1019.9 |
| 20260901133043 | 26 | 0 | 0.0 | 3.2 | 0.00 | 0.00 | 0.00 | 69 | 1019.8 |
| 20260901131547 | 25 | 0 | 0.0 | 1.6 | 0.00 | 0.00 | 0.00 | 71 | 1019.5 |
| 20260901130047 | 24 | 0 | 0.0 | 0.0 | 0.00 | 0.00 | 0.00 | 74 | 1019.4 |
| 20260901124555 | 23 | 0 | 0.0 | 0.0 | 0.00 | 0.00 | 0.00 | 75 | 1019.1 |
| 20260901123052 | 23 | 0 | 0.0 | 0.0 | 0.00 | 0.00 | 0.00 | 76 | 1019.1 |
| 20260901121547 | 22 | 0 | 0.0 | 0.0 | 0.00 | 0.00 | 0.00 | 77 | 1018.9 |
| 20260901120056 | 22 | 0 | 0.0 | 0.0 | 0.00 | 0.00 | 0.00 | 76 | 1018.6 |
| 20260901114553 | 23 | 0 | 0.0 | 0.0 | 0.00 | 0.00 | 0.00 | 74 | 1018.5 |
| 20260901113050 | 23 | 0 | 0.0 | 0.0 | 0.00 | 0.00 | 0.00 | 75 | 1018.5 |
| 20260901111556 | 23 | 0 | 0.0 | 0.0 | 0.00 | 0.00 | 0.00 | 74 | 1018.5 |
| 20260901110046 | 23 | 0 | 0.0 | 0.0 | 0.00 | 0.00 | 0.00 | 73 | 1018.4 |
| 20260901104551 | 23 | 0 | 0.0 | 0.0 | 0.00 | 0.00 | 0.00 | 72 | 1018.4 |
| 20260901103049 | 24 | 0 | 0.0 | 0.0 | 0.00 | 0.00 | 0.00 | 71 | 1018.2 |
| 20260901101606 | 24 | 0 | 0.0 | 0.0 | 0.00 | 0.00 | 0.00 | 70 | 1018.2 |
| 20260901100053 | 24 | 0 | 0.0 | 0.0 | 0.00 | 0.00 | 0.00 | 70 | 1018.2 |
| 20260901094549 | 24 | 0 | 0.0 | 0.0 | 0.00 | 0.00 | 0.00 | 69 | 1018.2 |
| 20260901093048 | 24 | 0 | 0.0 | 0.0 | 0.00 | 0.00 | 0.00 | 69 | 1018.1 |
| 20260901091610 | 24 | 0 | 0.0 | 0.0 | 0.00 | 0.00 | 0.00 | 69 | 1018.0 |
| 20260901090055 | 24 | 0 | 0.0 | 0.0 | 0.00 | 0.00 | 0.00 | 69 | 1018.0 |
| 20260901084548 | 24 | 0 | 0.0 | 0.0 | 0.00 | 0.00 | 0.00 | 68 | 1017.9 |
| 20260901083057 | 24 | 0 | 0.0 | 0.0 | 0.00 | 0.00 | 0.00 | 68 | 1017.8 |
| 20260901081555 | 24 | 0 | 0.0 | 0.0 | 0.00 | 0.00 | 0.00 | 68 | 1017.7 |
| 20260901080100 | 24 | 0 | 0.0 | 0.0 | 0.00 | 0.00 | 0.00 | 67 | 1017.7 |
| 20260901074551 | 24 | 0 | 0.0 | 0.0 | 0.00 | 0.00 | 0.00 | 66 | 1017.5 |
| 20260901073048 | 25 | 0 | 0.0 | 0.0 | 0.00 | 0.00 | 0.00 | 65 | 1017.6 |
| 20260901071554 | 25 | 0 | 0.0 | 0.0 | 0.00 | 0.00 | 0.00 | 65 | 1017.6 |
| 20260901070056 | 25 | 0 | 0.0 | 3.2 | 0.00 | 0.00 | 0.00 | 65 | 1017.6 |
| 20260901064548 | 25 | 0 | 0.0 | 0.0 | 0.00 | 0.00 | 0.00 | 64 | 1017.7 |
| 20260901063117 | 25 | 0 | 0.0 | 0.0 | 0.00 | 0.00 | 0.00 | 64 | 1017.6 |
| 20260901061554 | 25 | 0 | 0.0 | 0.0 | 0.00 | 0.00 | 0.00 | 64 | 1017.5 |
| 20260901060049 | 25 | 0 | 0.0 | 1.6 | 0.00 | 0.00 | 0.00 | 63 | 1017.6 |
| 20260901054544 | 25 | 0 | 0.0 | 0.0 | 0.00 | 0.00 | 0.00 | 63 | 1017.3 |
| 20260901053115 | 25 | 0 | 0.0 | 0.0 | 0.00 | 0.00 | 0.00 | 62 | 1017.4 |
| 20260901051603 | 25 | 0 | 0.0 | 0.0 | 0.00 | 0.00 | 0.00 | 62 | 1017.4 |
| 20260901050056 | 26 | 0 | 0.0 | 0.0 | 0.00 | 0.00 | 0.00 | 61 | 1017.3 |
| 20260901044557 | 25 | 0 | 0.0 | 1.6 | 0.00 | 0.00 | 0.00 | 61 | 1017.1 |
| 20260901043100 | 25 | 0 | 0.0 | 0.0 | 0.00 | 0.00 | 0.00 | 61 | 1017.3 |
| 20260901041608 | 26 | 0 | 0.0 | 0.0 | 0.00 | 0.00 | 0.00 | 60 | 1017.4 |
| 20260901040047 | 26 | 0 | 0.0 | 1.6 | 0.00 | 0.00 | 0.00 | 59 | 1017.4 |
| 20260901034546 | 26 | 0 | 0.0 | 1.6 | 0.00 | 0.00 | 0.00 | 59 | 1017.4 |
| 20260901033059 | 26 | 0 | 0.0 | 1.6 | 0.00 | 0.00 | 0.00 | 57 | 1017.3 |
| 20260901031557 | 26 | 0 | 0.0 | 1.6 | 0.00 | 0.00 | 0.00 | 58 | 1017.4 |
| 20260901030047 | 26 | 0 | 0.0 | 0.0 | 0.00 | 0.00 | 0.00 | 58 | 1017.2 |
| 20260901024556 | 26 | 0 | 0.0 | 1.6 | 0.00 | 0.00 | 0.00 | 59 | 1016.9 |
| 20260901023050 | 26 | 0 | 0.0 | 0.0 | 0.00 | 0.00 | 0.00 | 58 | 1016.6 |
| 20260901021549 | 26 | 0 | 0.0 | 0.0 | 0.00 | 0.00 | 0.00 | 56 | 1016.3 |
| 20260901020100 | 27 | 0 | 0.0 | 0.0 | 0.00 | 0.00 | 0.00 | 54 | 1015.9 |
| 20260901014600 | 27 | 0 | 0.0 | 0.0 | 0.00 | 0.00 | 0.00 | 52 | 1015.9 |
| 20260901013054 | 28 | 0 | 0.0 | 0.0 | 0.00 | 0.00 | 0.00 | 50 | 1015.7 |
| 20260901011545 | 30 | 0 | 0.0 | 0.0 | 0.00 | 0.00 | 0.00 | 48 | 1015.5 |
| 20260901010054 | 31 | 0 | 0.0 | 0.0 | 0.00 | 0.00 | 0.00 | 45 | 1015.5 |
| 20260901004600 | 32 | 0 | 0.0 | 0.0 | 0.00 | 0.00 | 0.00 | 43 | 1015.5 |
| 20260901003049 | 33 | 0 | 0.0 | 1.6 | 0.00 | 0.00 | 0.00 | 41 | 1015.4 |
| 20260901001554 | 34 | 0 | 0.0 | 1.6 | 0.00 | 0.00 | 0.00 | 38 | 1015.3 |
| 20260901000106 | 35 | 0 | 0.0 | 3.2 | 0.00 | 0.00 | 0.00 | 37 | 1015.5 |
| 20260831234612 | 35 | 106 | 0.0 | 3.2 | 0.00 | 0.00 | 0.00 | 36 | 1015.5 |
| 20260831233049 | 36 | 0 | 0.0 | 4.8 | 0.00 | 0.00 | 0.00 | 35 | 1015.6 |
| 20260831231555 | 36 | 0 | 0.0 | 6.4 | 0.00 | 0.00 | 0.00 | 34 | 1015.6 |
| 20260831230051 | 37 | 0 | 0.0 | 6.4 | 0.00 | 0.00 | 0.00 | 32 | 1015.6 |
| 20260831224545 | 38 | 0 | 0.0 | 4.8 | 0.00 | 0.00 | 0.00 | 31 | 1015.6 |
| 20260831223054 | 38 | 224 | 0.0 | 4.8 | 0.00 | 0.00 | 0.00 | 31 | 1015.6 |
| 20260831221551 | 39 | 0 | 0.0 | 4.8 | 0.00 | 0.00 | 0.00 | 30 | 1015.7 |
| 20260831220049 | 38 | 126 | 1.6 | 12.9 | 0.00 | 0.00 | 0.00 | 30 | 1015.7 |
| 20260831214604 | 38 | 0 | 0.0 | 4.8 | 0.00 | 0.00 | 0.00 | 30 | 1015.8 |
| 20260831213053 | 38 | 72 | 1.6 | 8.0 | 0.00 | 0.00 | 0.00 | 30 | 1015.8 |
| 20260831211548 | 39 | 94 | 1.6 | 8.0 | 0.00 | 0.00 | 0.00 | 30 | 1015.9 |
| 20260831210046 | 38 | 0 | 0.0 | 11.3 | 0.00 | 0.00 | 0.00 | 31 | 1016.1 |
| 20260831204605 | 38 | 192 | 0.0 | 3.2 | 0.00 | 0.00 | 0.00 | 31 | 1016.3 |
| 20260831203049 | 39 | 56 | 1.6 | 12.9 | 0.00 | 0.00 | 0.00 | 30 | 1016.5 |
| 20260831201557 | 40 | 115 | 1.6 | 8.0 | 0.00 | 0.00 | 0.00 | 30 | 1016.6 |
| 20260831200056 | 39 | 271 | 0.0 | 9.7 | 0.00 | 0.00 | 0.00 | 32 | 1016.8 |
| 20260831194555 | 39 | 0 | 1.6 | 9.7 | 0.00 | 0.00 | 0.00 | 31 | 1016.8 |
| 20260831193047 | 38 | 217 | 0.0 | 8.0 | 0.00 | 0.00 | 0.00 | 32 | 1017.0 |
| 20260831191544 | 40 | 200 | 1.6 | 6.4 | 0.00 | 0.00 | 0.00 | 31 | 1017.2 |
| 20260831190054 | 38 | 0 | 1.6 | 9.7 | 0.00 | 0.00 | 0.00 | 32 | 1017.3 |
| 20260831184549 | 38 | 200 | 1.6 | 8.0 | 0.00 | 0.00 | 0.00 | 33 | 1017.5 |
| 20260831183055 | 39 | 118 | 0.0 | 6.4 | 0.00 | 0.00 | 0.00 | 33 | 1017.6 |
| 20260831181549 | 38 | 161 | 1.6 | 8.0 | 0.00 | 0.00 | 0.00 | 33 | 1017.7 |
| 20260831180055 | 37 | 70 | 0.0 | 4.8 | 0.00 | 0.00 | 0.00 | 36 | 1017.9 |